{"data":{"norad_id":58555,"intl_designator":"2023-193C","name":"HONGHU 2","alt_names":[],"object_type":"PAYLOAD","status":"ACTIVE","operator":null,"country":"PRC","launch_date":"2023-12-08","launch_site_code":"JSC","launch_vehicle":null,"mission":null,"orbit_class":"UNKNOWN","rcs_meters":null,"size_class":null,"mass_kg":null,"dimensions":null,"purposes":[],"wikipedia_slug":null,"has_3d_model":false,"image_url":null,"decayed_at":null,"tle_current":{"epoch":"2026-09-21T20:00:53.895168Z","epoch_age_seconds":129770,"freshness":"FRESH","line1":"1 58555U 23193C   26264.83395712  .00005527  00000+0  16600-3 0  9998","line2":"2 58555  97.2861 254.7138 0040077 295.3509  64.3586 15.34041845116885","mean_motion":15.34041845,"eccentricity":0.0040077,"inclination_deg":97.2861,"raan_deg":254.7138,"arg_perigee_deg":295.3509,"mean_anomaly_deg":64.3586,"bstar":0.000166,"rev_number":11688,"period_min":93.869668855089,"perigee_km":436.3476569445,"apogee_km":491.18826195648,"semimajor_km":6841.9049594505,"source":"CELESTRAK","updated_at":"2026-09-22T09:00:26.733398Z"}}}